JE7ZDC Weather Reports


time (UTC)temp
C
wind
direction
speed
KPH
gust
KPH
rain 1hr
cm
rain 24hr
cm
rain mn
cm
humidity
%
barometer
mb
20260502194544 11 160 0.0 4.8 0.00 0.05 0.00 70 1012.0
20260502193041 10 101 1.6 6.4 0.00 0.05 0.00 73 1012.3
20260502191539 10 158 0.0 1.6 0.00 0.05 0.00 76 1012.3
20260502190037 10 161 0.0 0.0 0.00 0.05 0.00 75 1012.0
20260502184545 10 252 0.0 4.8 0.00 0.05 0.00 75 1012.1
20260502183032 10 257 0.0 4.8 0.00 0.05 0.00 78 1011.8
20260502181527 7 158 0.0 4.8 0.00 0.05 0.00 87 1011.9
20260502163019 7 120 0.0 1.6 0.00 0.05 0.00 89 1011.6
20260502161515 7 110 0.0 1.6 0.00 0.05 0.00 88 1011.5
20260502151505 7 270 0.0 0.0 0.00 0.05 0.00 85 1011.8
20260502123041 11 261 0.0 0.0 0.00 0.05 0.05 69 1011.2
20260502121543 11 261 0.0 1.6 0.00 0.05 0.05 67 1011.2
20260502114538 12 141 0.0 1.6 0.00 0.05 0.05 64 1010.8
20260502113034 12 22 0.0 1.6 0.00 0.05 0.05 62 1010.6
20260502111536 12 90 0.0 0.0 0.00 0.05 0.05 59 1010.6
20260502110032 12 90 0.0 0.0 0.00 0.05 0.05 57 1010.4
20260502104539 13 89 0.0 1.6 0.00 0.08 0.05 55 1010.2
20260502103027 13 134 0.0 0.0 0.00 0.08 0.05 54 1009.8
20260502101525 13 70 0.0 1.6 0.00 0.08 0.05 54 1009.5
20260502091518 16 238 0.0 4.8 0.00 0.18 0.05 46 1008.3
20260502071501 19 306 1.6 14.5 0.00 0.41 0.05 35 1005.8
20260502070058 20 53 1.6 9.7 0.00 0.41 0.05 35 1005.6
20260502064559 20 38 0.0 9.7 0.00 0.43 0.05 35 1005.4
20260502063057 20 289 1.6 17.7 0.00 0.43 0.05 35 1004.9
20260502061547 20 302 4.8 17.7 0.00 0.43 0.05 34 1004.2
20260502060042 20 283 4.8 29.0 0.03 0.43 0.05 34 1003.6
20260502054540 20 195 8.0 22.5 0.03 0.43 0.05 35 1003.6
20260502053046 19 294 8.0 30.6 0.03 0.43 0.05 34 1003.4
20260502051539 20 37 8.0 33.8 0.03 0.43 0.05 34 1003.2
20260502050035 20 29 6.4 32.2 0.00 0.41 0.03 35 1003.2
20260502044527 20 293 6.4 32.2 0.00 0.41 0.03 37 1003.1
20260502043024 20 58 8.0 20.9 0.00 0.41 0.03 36 1002.9
20260502041523 20 315 6.4 32.2 0.00 0.41 0.03 36 1003.0
20260502040024 20 325 4.8 24.1 0.00 0.41 0.03 37 1002.8
20260502034516 20 56 6.4 33.8 0.00 0.46 0.03 38 1002.6
20260502033014 20 7 6.4 20.9 0.00 0.46 0.03 36 1002.3
20260502031511 20 222 4.8 24.1 0.00 0.46 0.03 39 1002.0
20260502030010 20 88 3.2 17.7 0.00 0.86 0.03 40 1001.6
20260502024505 20 33 4.8 22.5 0.00 0.86 0.03 38 1001.0
20260502023007 20 27 4.8 19.3 0.00 0.86 0.03 43 1001.3
20260502021604 20 289 1.6 16.1 0.00 0.86 0.03 48 1000.8
20260502020057 20 295 8.0 22.5 0.00 0.86 0.03 46 1000.1
20260502014557 20 306 3.2 12.9 0.00 1.17 0.03 47 999.6
20260502013057 20 257 4.8 14.5 0.00 1.17 0.03 45 1000.1
20260502011604 18 303 3.2 9.7 0.00 1.17 0.03 50 1000.7
20260502010047 18 28 1.6 17.7 0.00 1.17 0.03 52 1000.1
20260502004556 18 281 1.6 14.5 0.00 1.55 0.03 55 1000.1
20260502003039 18 305 3.2 24.1 0.00 1.55 0.03 51 999.8
20260502001538 17 283 0.0 9.7 0.00 1.55 0.03 55 999.2
20260502000032 17 86 0.0 6.4 0.00 1.55 0.03 53 998.6
20260501234536 16 127 0.0 12.9 0.00 2.01 0.03 58 997.9
20260501233025 16 276 0.0 12.9 0.00 2.01 0.03 50 998.2
20260501231535 15 257 0.0 8.0 0.00 2.01 0.03 52 997.4
20260501230019 15 288 0.0 8.0 0.00 2.01 0.03 56 997.4
20260501224517 15 204 1.6 9.7 0.00 2.39 0.03 51 997.3
20260501223015 15 316 1.6 9.7 0.00 2.39 0.03 51 997.2
20260501221512 15 290 0.0 6.4 0.00 2.39 0.03 60 995.7
20260501220008 14 63 0.0 17.7 0.00 2.44 0.03 49 996.6
20260501214511 13 273 0.0 20.9 0.00 2.44 0.03 53 995.9
20260501213005 13 309 6.4 35.4 0.00 2.44 0.03 56 995.0
20260501211505 13 245 4.8 25.7 0.00 2.44 0.03 55 993.9
20260501210002 12 258 4.8 19.3 0.00 2.49 0.03 57 994.0
20260501204502 12 269 8.0 32.2 0.03 2.49 0.03 59 993.9
20260501203101 12 8 8.0 32.2 0.03 2.49 0.03 60 993.5
20260501201558 12 337 12.9 33.8 0.03 2.49 0.03 61 993.8
20260501200055 12 303 9.7 38.6 0.03 2.49 0.03 65 994.9